Погода в Ракушино

Россия / Новгородская область     58°03′31″N   32°40′08″E
темп.,
°C
ветер,
м/с
пор.,
м/с
влажн.,
%
обл.,
%
осадки,
мм/ч
давл.,
гПа
погр.,
м
26 июля, пн
пн2600:00+14ю11665 0.0 102111
03:00+13ююв11725 0.0 102112
06:00+13ю11765 0.0 102216
09:00+20зюз12555 0.0 1021365
12:00+25з22415 0.0 10211596
15:00+26з22377 0.0 10202109
18:00+26зсз124212 0.0 10202107
21:00+19в11685 0.0 102011
27 июля, вт
вт2700:00+17вюв11715 0.0 102111
03:00+16ююв11735 0.0 102110
06:00+16вюв11751 0.0 102114
09:00+23вюв12515 0.0 1021369
12:00+28ююв11361 0.0 10201851
15:00+29юз11311 0.0 10182277
18:00+28з22418 0.0 10171295
21:00+21юв115984 0.0 101611
28 июля, ср
ср2800:00+18юв226792 0.0 101619
03:00+17юв237562 0.0 101551
06:00+18юв2781100 0.0 1014150
09:00+23юв3863100 0.0 1012391
12:00+24ююз2561100 0.1 1010989
15:00+18ююв3998100 4.2 1009446
18:00+18ююв2797100 6.6 1008475
21:00+18ююз2599100 7.1 1006299
29 июля, чт
чт2900:00+17зюз259986 0.1 1006201
03:00+16юз2410064 0.1 1006118
06:00+16ююз269937 0.0 1006192
09:00+19зюз487869 0.0 1006501
12:00+24зюз595241 0.0 10051698
15:00+24зюз5125398 0.1 10042234
18:00+24юз59588 0.0 10031097
21:00+18юз498569 0.8 1003209
30 июля, пт
пт3000:00+16юз3109323 0.4 1005310
03:00+14юз312971 0.5 1005332
06:00+14юз411966 0.0 1005429
09:00+18зюз587217 0.0 1005865
12:00+22зюз585041 0.0 10051907
15:00+22зюз3852100 0.0 10051462
18:00+21з2562100 0.0 1005382
21:00+17ю2376100 0.0 100545